{"data":{"norad_id":53216,"intl_designator":"2022-084AD","name":"STARLINK-4376","alt_names":[],"object_type":"PAYLOAD","status":"ACTIVE","operator":null,"country":"US","launch_date":"2022-07-22","launch_site_code":"AFWTR","launch_vehicle":null,"mission":null,"orbit_class":"UNKNOWN","rcs_meters":null,"size_class":null,"mass_kg":null,"dimensions":null,"purposes":["comms"],"wikipedia_slug":null,"has_3d_model":false,"image_url":null,"decayed_at":null,"tle_current":{"epoch":"2026-05-25T03:42:48.665088Z","epoch_age_seconds":72233,"freshness":"FRESH","line1":"1 53216U 22084AD  26145.15472992 -.00012169  00000+0 -83940-3 0  9997","line2":"2 53216  97.4457 205.0944 0000366 114.7085 245.4181 15.05712197210815","mean_motion":15.05712197,"eccentricity":3.66e-5,"inclination_deg":97.4457,"raan_deg":205.0944,"arg_perigee_deg":114.7085,"mean_anomaly_deg":245.4181,"bstar":-0.0008394,"rev_number":21081,"period_min":95.63580628948,"perigee_km":549.06683253522,"apogee_km":549.57392241525,"semimajor_km":6927.4573774752,"source":"CELESTRAK","updated_at":"2026-05-25T13:38:17.355198Z"}}}